[[{"header":{"parameterUnit":"m.s-1","parameterCategory":1,"la1":30.2991,"la2":30.254,"lo1":-89.0895,"lo2":-89.0444,"dy":0.0017,"dx":0.0017,"nx":28,"ny":28,"refTime":"2025-01-01T03:00:00:Z","depth":0,"parameterNumber":2,"parameterNumberName":"U-component_of_WINDS"},"data":[0,0,0,0,0,0,0,0,0,0,0,0,0,0,0,0,0,0,0,0,0,0,0,0,0,0,0,0,0,0,0,0,0,0,0,0,0,0,0,0,0,0,0,0,0,0,0,0,0,0,0,0,0,0,0,0,0,0,-2.2885,-2.2885,0,-2.2901,-2.2901,-2.2902,-2.2821,-2.2818,-2.2816,-2.2814,-2.2834,-2.2836,-2.2839,0,0,0,0,0,0,0,0,0,0,0,0,0,-2.279,-2.2792,-2.2885,-2.2885,-2.2886,-2.2901,-2.2901,-2.2902,-2.2821,-2.2818,-2.2815,-2.2813,-2.2833,-2.2836,-2.2839,0,0,0,0,0,0,0,0,0,0,0,0,0,-2.2821,-2.2793,-2.2885,-2.2847,-2.2844,-2.2901,-2.2901,-2.2902,-2.2822,-2.2818,-2.2815,-2.2811,-2.2832,-2.2836,-2.284,-2.2935,0,0,-2.2852,-2.2854,0,0,0,0,0,0,0,0,-2.282,-2.2825,-2.2853,-2.285,-2.2846,-2.2855,-2.2875,-2.2913,-2.2822,-2.283,-2.2814,-2.281,-2.2844,-2.2847,-2.2857,-2.2936,-2.2937,-2.2852,-2.2855,-2.2857,-2.2858,0,0,0,0,0,0,0,-2.2818,-2.2824,-2.2892,-2.2853,-2.2849,-2.2831,-2.2832,-2.2882,-2.2857,-2.2829,-2.2823,-2.2826,-2.2841,-2.2854,-2.2857,-2.2937,-2.2852,-2.2856,-2.2858,-2.286,-2.3097,-2.3101,0,0,0,0,0,0,-2.282,-2.2823,-2.2891,-2.2892,-2.2824,-2.2836,-2.2836,-2.2856,-2.2856,-2.2852,-2.2829,-2.2822,-2.2849,-2.2853,-2.2858,-2.297,-2.2857,-2.286,-2.2863,-2.3093,-2.3098,-2.3102,0,0,0,0,0,0,-2.2818,-2.2827,-2.289,-2.2856,-2.2862,-2.2841,-2.2864,-2.2858,-2.287,-2.2856,-2.2851,-2.2846,-2.2846,-2.2852,-2.2917,-2.2969,-2.2862,-2.2866,-2.3089,-2.3095,-2.31,-2.3195,0,0,0,0,0,0,-2.2816,-2.2827,-2.2861,-2.2857,-2.2865,-2.2948,-2.2867,-2.2861,-2.2877,-2.2868,-2.287,-2.2867,-2.2844,-2.2911,-2.2921,-2.2973,-2.2869,-2.3084,-2.3091,-2.3098,-2.3187,-2.3203,-2.3217,0,0,0,0,0,-2.2813,-2.2888,-2.2863,-2.2872,-2.2907,-2.2951,-2.2955,-2.2925,-2.2882,-2.2917,-2.2908,-2.2867,-2.2963,-2.2918,-2.2928,-2.2983,-2.308,-2.3089,-2.3097,-2.318,-2.32,-2.3217,0,0,0,0,0,0,-2.2899,-2.2886,-2.2859,-2.2935,-2.2945,-2.2937,-2.298,-2.2947,-2.297,-2.2961,-2.2924,-2.2926,-2.2997,-2.2997,-2.2947,-2.3077,-2.3014,-2.3025,-2.3073,-2.3092,-2.3107,-2.3105,-2.2872,0,0,0,0,0,-2.2927,-2.2962,-2.295,-2.3018,-2.3024,-2.3002,-2.302,-2.2996,-2.3005,-2.3009,-2.3005,-2.3016,-2.3049,-2.3071,-2.31,-2.3188,-2.3187,-2.323,-2.3246,-2.3258,-2.3268,-2.3315,-2.3334,-2.313,-2.313,-2.313,0,0,-2.2985,-2.2983,-2.3007,-2.3036,-2.304,-2.3079,-2.3006,-2.3049,-2.3078,-2.3016,-2.3076,-2.3074,-2.3085,-2.3161,-2.3195,-2.3163,-2.3325,-2.3269,-2.3279,-2.3282,-2.3326,-2.3346,-2.3363,-2.3136,-2.3135,-2.3134,0,0,-2.311,-2.3112,-2.3169,-2.3175,-2.3183,-2.3168,-2.3182,-2.3181,-2.3176,-2.3236,-2.3191,-2.3226,-2.3282,-2.3292,-2.3304,-2.3437,-2.34,-2.3447,-2.3526,-2.3573,-2.3589,-2.3603,-2.365,-2.3667,-2.3457,-2.3458,-2.3458,0,-2.3181,-2.3236,-2.3203,-2.3249,-2.3264,-2.321,-2.3268,-2.3277,-2.3295,-2.3307,-2.3271,-2.3342,-2.3345,-2.3424,-2.3456,-2.3468,-2.3484,-2.3446,-2.3589,-2.3603,-2.3615,-2.366,-2.3678,-2.3463,-2.3463,-2.3462,-2.3462,0,-2.3323,-2.3362,-2.3408,-2.3425,-2.3445,-2.3498,-2.3475,-2.35,-2.3476,-2.3465,-2.3529,-2.3531,-2.356,-2.3578,-2.3555,-2.3654,-2.3634,-2.3595,-2.3531,-2.3641,-2.3682,-2.3699,-2.3471,-2.3469,-2.3468,-2.3466,0,0,-2.35,-2.35,-2.3517,-2.3525,-2.3532,-2.3562,-2.3614,-2.3642,-2.3664,-2.3679,-2.3722,-2.3773,-2.3736,-2.3751,-2.3729,-2.377,-2.3876,-2.3726,-2.3725,-2.3753,-2.3986,-2.4015,-2.4035,-2.3852,-2.3856,-2.3858,-2.3985,0,-2.3622,-2.3707,-2.3681,-2.3768,-2.3805,-2.3755,-2.3801,-2.3811,-2.3804,-2.3835,-2.3828,-2.3864,-2.3813,-2.3822,-2.3861,-2.3854,-2.3922,-2.3845,-2.3893,-2.3895,-2.389,-2.4057,-2.4087,-2.4207,-2.4001,-2.4004,-2.4006,0,-2.3774,-2.3795,-2.3886,-2.3887,-2.3902,-2.3942,-2.3967,-2.3997,-2.4009,-2.4001,-2.4018,-2.3989,-2.4041,-2.3979,-2.4052,-2.4001,-2.4019,-2.402,-2.4024,-2.4026,-2.3956,-2.4063,-2.4244,-2.4262,-2.4031,-2.4029,-2.4027,0,-2.3893,-2.3944,-2.4005,-2.4014,-2.4017,-2.4048,-2.4051,-2.4059,-2.4078,-2.41,-2.4113,-2.4142,-2.4157,-2.4181,-2.4161,-2.4118,-2.4238,-2.4174,-2.4234,-2.4234,-2.4259,-2.4258,-2.4445,-2.4274,-2.4274,-2.4273,-2.4273,0,-2.4031,-2.4089,-2.4059,-2.4097,-2.4161,-2.4131,-2.4196,-2.4194,-2.4202,-2.4239,-2.42,-2.4236,-2.4208,-2.4243,-2.4228,-2.4292,-2.4299,-2.4295,-2.429,-2.4298,-2.4298,-2.4308,-2.4299,-2.4278,-2.4277,-2.4276,-2.4275,0,-2.4174,-2.4156,-2.422,-2.4219,-2.422,-2.4267,-2.4267,-2.4303,-2.4294,-2.4342,-2.4352,-2.4338,-2.4378,-2.4361,-2.4402,-2.4392,-2.4474,-2.4458,-2.4469,-2.4465,-2.4525,-2.452,-2.4725,-2.475,-2.4563,-2.4565,-2.4567,0,-2.4262,-2.4305,-2.4309,-2.4331,-2.4336,-2.4372,-2.4392,-2.4366,-2.4388,-2.4406,-2.444,-2.4476,-2.4503,-2.4568,-2.4563,-2.4596,-2.458,-2.465,-2.4585,-2.4591,-2.4581,-2.4578,-2.4582,-2.4662,-2.4665,-2.4666,-2.4668,0,-2.442,-2.441,-2.4439,-2.4466,-2.449,-2.451,-2.4527,-2.4548,-2.4523,-2.455,-2.4589,-2.461,-2.4653,-2.469,-2.4719,-2.4724,-2.4693,-2.4689,-2.4704,-2.4712,-2.4716,-2.4714,-2.4504,-2.4684,-2.4682,-2.4681,-2.468,-2.4679,-2.4538,-2.4574,-2.4583,-2.4617,-2.4627,-2.4644,-2.4678,-2.4674,-2.4706,-2.4737,-2.4721,-2.4767,-2.478,-2.4816,-2.4826,-2.4863,-2.4836,-2.4858,-2.4864,-2.4869,-2.4877,-2.4712,-2.4869,-2.4868,-2.4868,-2.4867,-2.4867,0,-2.4693,-2.4697,-2.4729,-2.4753,-2.4781,-2.4749,-2.4767,-2.4792,-2.4833,-2.4847,-2.4875,-2.4922,-2.4958,-2.4956,-2.499,-2.502,-2.5007,-2.503,-2.5027,-2.5029,-2.49,-2.4883,-2.504,-2.504,-2.504,-2.504,-2.504,-2.504,-2.4777,-2.4837,-2.4829,-2.4895,-2.4898,-2.4942,-2.4955,-2.4972,-2.4983,-2.5036,-2.5066,-2.5065,-2.5074,-2.5108,-2.5141,-2.5139,-2.5154,-2.5182,-2.5176,-2.5055,-2.5038,-2.5021,-2.5005,-2.5186,-2.5186,-2.5301,-2.5303,-2.5303]},{"header":{"parameterUnit":"m.s-1","parameterCategory":1,"la1":30.2991,"la2":30.254,"lo1":-89.0895,"lo2":-89.0444,"dy":0.0017,"dx":0.0017,"nx":28,"ny":28,"refTime":"2025-01-01T03:00:00:Z","depth":0,"parameterNumber":3,"parameterNumberName":"V-component_of_WINDS"},"data":[0,0,0,0,0,0,0,0,0,0,0,0,0,0,0,0,0,0,0,0,0,0,0,0,0,0,0,0,0,0,0,0,0,0,0,0,0,0,0,0,0,0,0,0,0,0,0,0,0,0,0,0,0,0,0,0,0,0,1.3743,1.3743,0,1.3721,1.3721,1.3721,1.3765,1.3766,1.3767,1.3769,1.3742,1.374,1.3738,0,0,0,0,0,0,0,0,0,0,0,0,0,1.382,1.3818,1.3743,1.3743,1.3743,1.3721,1.3721,1.3721,1.3764,1.3766,1.3768,1.3769,1.3743,1.3741,1.3738,0,0,0,0,0,0,0,0,0,0,0,0,0,1.3791,1.3818,1.3743,1.3762,1.3763,1.3721,1.3721,1.3721,1.3764,1.3766,1.3768,1.377,1.3744,1.3741,1.3738,1.3675,0,0,1.3728,1.3727,0,0,0,0,0,0,0,0,1.3792,1.3788,1.3759,1.376,1.3762,1.3748,1.3738,1.3705,1.3763,1.3764,1.3769,1.3771,1.3742,1.3739,1.373,1.3674,1.3673,1.3728,1.3726,1.3725,1.3724,0,0,0,0,0,0,0,1.3794,1.3789,1.3734,1.3759,1.3761,1.377,1.3769,1.3732,1.3741,1.3764,1.3767,1.3764,1.3743,1.3733,1.373,1.3673,1.3728,1.3725,1.3724,1.3722,1.3565,1.3563,0,0,0,0,0,0,1.3795,1.3791,1.3735,1.3734,1.3783,1.3767,1.3765,1.375,1.3741,1.3742,1.3762,1.3766,1.3737,1.3734,1.3729,1.3656,1.3725,1.3722,1.372,1.3568,1.3565,1.3562,0,0,0,0,0,0,1.3796,1.3789,1.3736,1.3763,1.3757,1.3764,1.3746,1.3749,1.3739,1.374,1.3742,1.375,1.3739,1.3734,1.3689,1.3656,1.3721,1.3718,1.3571,1.3567,1.3564,1.351,0,0,0,0,0,0,1.3798,1.3789,1.3766,1.3762,1.3755,1.3697,1.3744,1.3747,1.3734,1.3739,1.373,1.373,1.374,1.3693,1.3686,1.3653,1.3715,1.3573,1.3569,1.3565,1.3514,1.3505,1.3496,0,0,0,0,0,1.3801,1.3751,1.3765,1.3758,1.3727,1.3695,1.3691,1.3705,1.3731,1.3707,1.3709,1.373,1.3661,1.3689,1.3681,1.3646,1.3576,1.357,1.3565,1.3518,1.3507,1.3497,0,0,0,0,0,0,1.3749,1.375,1.3766,1.3714,1.3704,1.3702,1.3673,1.3691,1.3673,1.3678,1.3695,1.3692,1.3644,1.3641,1.3671,1.3586,1.3623,1.3616,1.359,1.3579,1.357,1.3571,1.3713,0,0,0,0,0,1.3732,1.3706,1.3709,1.3662,1.3657,1.3666,1.3652,1.3664,1.3654,1.3649,1.3647,1.3636,1.3612,1.3595,1.3573,1.3514,1.3513,1.3487,1.3478,1.3471,1.3464,1.3433,1.3422,1.3545,1.3545,1.3545,0,0,1.3695,1.3693,1.3676,1.3652,1.3646,1.3619,1.3662,1.3631,1.3611,1.3644,1.3603,1.3601,1.3589,1.3538,1.3515,1.3533,1.343,1.3464,1.3458,1.3455,1.3427,1.3415,1.3405,1.3542,1.3542,1.3543,0,0,1.3615,1.3611,1.3572,1.3566,1.3557,1.3563,1.3554,1.355,1.355,1.3509,1.3534,1.351,1.3468,1.3459,1.3448,1.3367,1.3386,1.3359,1.3312,1.3282,1.3272,1.3264,1.3234,1.3224,1.3353,1.3352,1.3352,0,1.357,1.3531,1.3549,1.3517,1.3506,1.3538,1.3498,1.3491,1.3474,1.3465,1.3487,1.3435,1.3429,1.3377,1.3357,1.3348,1.3337,1.3359,1.3272,1.3264,1.3256,1.3229,1.3218,1.3349,1.335,1.335,1.335,0,1.3477,1.345,1.3419,1.3405,1.339,1.3354,1.3366,1.335,1.3363,1.3367,1.3325,1.332,1.3297,1.3286,1.3298,1.3235,1.3247,1.327,1.3307,1.3241,1.3215,1.3205,1.3345,1.3346,1.3347,1.3347,0,0,1.3362,1.3359,1.3348,1.3342,1.3335,1.3314,1.328,1.3259,1.3245,1.3232,1.3204,1.3169,1.3191,1.3179,1.319,1.3164,1.31,1.3191,1.3191,1.3174,1.3031,1.3013,1.3001,1.3114,1.3112,1.311,1.3032,0,1.3282,1.3225,1.3241,1.3184,1.3159,1.3189,1.316,1.3152,1.3155,1.3134,1.3137,1.3112,1.3143,1.3136,1.3112,1.3113,1.3072,1.3119,1.3087,1.3085,1.3088,1.2987,1.2968,1.2894,1.3022,1.302,1.3019,0,1.3182,1.3168,1.3108,1.3107,1.3097,1.307,1.3053,1.3033,1.3025,1.3029,1.3017,1.3034,1.3,1.3039,1.2992,1.3024,1.3012,1.3011,1.3008,1.3005,1.3048,1.2981,1.2871,1.286,1.3003,1.3005,1.3006,0,1.3104,1.307,1.303,1.3024,1.3021,1.3002,1.3,1.2994,1.2981,1.2966,1.2958,1.2939,1.2928,1.2913,1.2924,1.2951,1.2876,1.2915,1.2878,1.2877,1.2859,1.286,1.2745,1.2852,1.2852,1.2853,1.2853,0,1.3013,1.2975,1.2995,1.2971,1.2929,1.2948,1.2907,1.2908,1.2903,1.2878,1.2903,1.288,1.2897,1.2874,1.2883,1.2843,1.2838,1.284,1.2842,1.2837,1.2837,1.2829,1.2834,1.285,1.285,1.2851,1.2851,0,1.2918,1.293,1.2889,1.2891,1.289,1.286,1.2861,1.2838,1.2844,1.2813,1.2807,1.2815,1.2791,1.2801,1.2774,1.278,1.2729,1.2739,1.2732,1.2734,1.2696,1.27,1.2572,1.2556,1.2673,1.2672,1.2671,0,1.2859,1.2831,1.2831,1.2817,1.2814,1.2791,1.2779,1.2797,1.2783,1.2772,1.275,1.2728,1.2712,1.267,1.2674,1.2654,1.2663,1.262,1.266,1.2656,1.2662,1.2663,1.2661,1.2611,1.261,1.2608,1.2608,0,1.2753,1.2761,1.2743,1.2728,1.2713,1.2701,1.2691,1.2678,1.2696,1.2679,1.2655,1.2642,1.2616,1.2594,1.2576,1.2573,1.2593,1.2595,1.2586,1.2579,1.2577,1.2578,1.271,1.2598,1.2599,1.2599,1.26,1.26,1.2675,1.2652,1.2648,1.2628,1.2623,1.2613,1.2592,1.2597,1.2577,1.2559,1.257,1.2542,1.2535,1.2515,1.2509,1.2487,1.2503,1.2489,1.2486,1.2482,1.2477,1.2581,1.2483,1.2484,1.2484,1.2484,1.2484,0,1.257,1.257,1.2551,1.2538,1.2522,1.2544,1.2534,1.2519,1.2495,1.2488,1.2471,1.2444,1.2423,1.2425,1.2406,1.2387,1.2396,1.2382,1.2383,1.2382,1.2463,1.2473,1.2375,1.2375,1.2375,1.2375,1.2375,1.2375,1.2514,1.2476,1.2484,1.2444,1.2444,1.2418,1.2411,1.2402,1.2397,1.2366,1.2349,1.2352,1.2348,1.2329,1.231,1.2312,1.2303,1.2285,1.229,1.2365,1.2376,1.2386,1.2396,1.2283,1.2283,1.221,1.221,1.2209]}]]